ITARNLAS2 Weather Reports


time (UTC)temp
F
wind
direction
speed
knots
gust
knots
rain 1hr
in
rain 24hr
in
rain mn
in
humidity
%
barometer
mb
20260508203102 51 123 3.5 9.6 0.00 0.00 0.00 100 1015.4
20260508201559 51 75 2.6 7.8 0.00 0.00 0.00 99 1015.3
20260508194559 52 128 1.7 9.6 0.00 0.00 0.00 98 1015.0
20260508193113 52 148 3.5 8.7 0.00 0.00 0.00 97 1014.9
20260508191613 53 69 1.7 7.0 0.00 0.00 0.00 97 1014.7
20260508190054 53 164 2.6 16.5 0.00 0.00 0.00 96 1014.6
20260508184557 53 119 2.6 10.4 0.00 0.00 0.00 94 1014.5
20260508183057 54 161 2.6 8.7 0.00 0.00 0.00 93 1014.2
20260508181558 54 128 4.3 10.4 0.00 0.00 0.00 91 1014.1
20260508180057 55 134 3.5 11.3 0.00 0.00 0.00 89 1013.9
20260508174557 55 184 5.2 13.9 0.00 0.00 0.00 88 1013.9
20260508173056 56 70 3.5 13.0 0.00 0.00 0.00 87 1013.8
20260508171607 56 107 2.6 12.2 0.00 0.00 0.00 88 1013.5
20260508170100 56 113 5.2 13.0 0.00 0.00 0.00 87 1013.3
20260508164555 56 70 5.2 13.9 0.00 0.00 0.00 88 1013.5
20260508163059 57 157 7.0 13.9 0.00 0.00 0.00 88 1013.8
20260508161559 57 238 4.3 15.6 0.00 0.00 0.00 89 1013.8
20260508160058 57 153 3.5 13.9 0.00 0.00 0.00 88 1014.0
20260508154559 58 153 4.3 13.9 0.00 0.00 0.00 87 1013.9
20260508153058 58 82 3.5 12.2 0.00 0.00 0.00 87 1014.0
20260508151557 58 116 5.2 15.6 0.00 0.00 0.00 83 1014.1
20260508150054 59 94 3.5 13.0 0.00 0.00 0.00 82 1014.0
20260508144555 58 252 4.3 13.9 0.00 0.00 0.00 83 1014.1
20260508143103 59 154 5.2 13.9 0.00 0.00 0.00 80 1014.2
20260508141557 60 95 4.3 12.2 0.00 0.00 0.00 79 1014.0
20260508140059 59 157 3.5 14.8 0.00 0.00 0.00 81 1014.1
20260508134559 59 161 4.3 14.8 0.00 0.00 0.00 81 1014.2
20260508133100 60 336 3.5 15.6 0.00 0.00 0.00 81 1014.2
20260508131602 60 78 5.2 13.9 0.00 0.00 0.00 80 1013.9
20260508130111 60 135 6.1 16.5 0.00 0.00 0.00 77 1014.1
20260508124559 61 138 4.3 12.2 0.00 0.00 0.00 78 1014.0
20260508123103 61 96 5.2 16.5 0.00 0.00 0.00 78 1014.0
20260508121603 63 201 3.5 13.9 0.00 0.00 0.00 80 1014.2
20260508120059 62 355 3.5 13.0 0.00 0.00 0.00 80 1014.4
20260508114555 61 54 5.2 13.0 0.00 0.00 0.00 85 1014.4
20260508113102 61 115 3.5 11.3 0.00 0.00 0.00 84 1014.4
20260508111556 61 129 7.0 15.6 0.00 0.00 0.00 85 1014.5
20260508110101 61 142 3.5 14.8 0.00 0.00 0.00 87 1014.4
20260508104620 61 143 5.2 12.2 0.00 0.00 0.00 86 1014.5
20260508103054 60 101 4.3 15.6 0.00 0.00 0.00 87 1014.5
20260508101557 60 143 3.5 13.0 0.00 0.00 0.00 87 1014.5
20260508100057 60 242 3.5 10.4 0.00 0.00 0.00 90 1014.5
20260508094555 59 98 6.1 14.8 0.00 0.00 0.00 92 1014.6
20260508093055 59 80 5.2 14.8 0.00 0.00 0.00 91 1014.8
20260508091556 59 125 3.5 12.2 0.00 0.00 0.00 93 1014.8
20260508090109 58 254 2.6 7.8 0.00 0.00 0.00 92 1014.7
20260508084557 58 217 4.3 9.6 0.00 0.00 0.00 92 1014.7
20260508083109 58 99 2.6 10.4 0.00 0.00 0.00 99 1014.7
20260508081559 57 265 2.6 8.7 0.00 0.00 0.00 100 1014.7
20260508080106 56 94 2.6 13.0 0.00 0.00 0.00 100 1014.6
20260508074553 56 138 3.5 11.3 0.00 0.00 0.00 100 1014.7
20260508073057 54 98 1.7 7.0 0.00 0.00 0.00 100 1014.5
20260508071602 52 87 2.6 14.8 0.00 0.00 0.00 100 1014.5
20260508070139 51 121 3.5 13.0 0.00 0.00 0.00 100 1014.3
20260508064608 50 46 1.7 7.8 0.00 0.00 0.00 100 1014.2
20260508063053 48 13 1.7 5.2 0.00 0.00 0.00 100 1014.1
20260508061603 46 0 0.0 2.6 0.00 0.00 0.00 100 1013.8
20260508060058 44 169 0.0 0.9 0.00 0.00 0.00 100 1013.8
20260508054558 43 0 0.0 1.7 0.00 0.00 0.00 100 1013.7
20260508053104 41 0 0.0 1.7 0.00 0.00 0.00 100 1013.5
20260508051558 40 0 0.0 0.0 0.00 0.00 0.00 100 1013.5
20260508050103 40 0 0.0 0.0 0.00 0.00 0.00 100 1013.2
20260508044557 40 0 0.0 0.0 0.00 0.00 0.00 100 1013.1
20260508043106 40 0 0.0 0.0 0.00 0.00 0.00 100 1013.2
20260508041557 40 0 0.0 0.0 0.00 0.00 0.00 100 1012.9
20260508040055 40 0 0.0 0.0 0.00 0.00 0.00 100 1013.1
20260508034556 40 0 0.0 0.0 0.00 0.00 0.00 100 1013.1
20260508033057 40 0 0.0 0.0 0.00 0.00 0.00 100 1013.2
20260508031558 41 0 0.0 0.0 0.00 0.00 0.00 100 1013.1
20260508024558 41 0 0.0 0.0 0.00 0.00 0.00 100 1013.3
20260508023055 41 0 0.0 0.0 0.00 0.00 0.00 100 1013.4
20260508021554 41 0 0.0 0.0 0.00 0.00 0.00 100 1013.4
20260508020100 42 0 0.0 0.0 0.00 0.00 0.00 100 1013.5
20260508014559 42 0 0.0 0.0 0.00 0.00 0.00 100 1013.6
20260508013104 43 0 0.0 1.7 0.00 0.00 0.00 100 1013.6
20260508011557 43 0 0.0 1.7 0.00 0.00 0.00 100 1013.6
20260508010054 42 0 0.0 0.0 0.00 0.00 0.00 100 1013.5
20260508004600 42 0 0.0 1.7 0.00 0.00 0.00 100 1013.6
20260508003055 42 0 0.0 0.0 0.00 0.00 0.00 100 1013.8
20260508001556 42 0 0.0 0.0 0.00 0.00 0.00 100 1014.0
20260508000057 42 0 0.0 0.0 0.00 0.00 0.00 100 1014.2
20260507234559 43 0 0.0 0.0 0.00 0.00 0.00 100 1014.2
20260507233055 43 0 0.0 0.0 0.00 0.00 0.00 100 1014.2
20260507231555 43 0 0.0 0.0 0.00 0.00 0.00 100 1014.3
20260507230100 44 0 0.0 0.0 0.00 0.00 0.00 100 1014.3
20260507224557 44 0 0.0 0.0 0.00 0.00 0.00 100 1014.3
20260507223057 45 0 0.0 0.0 0.00 0.00 0.00 100 1014.2
20260507221600 45 0 0.0 0.0 0.00 0.00 0.00 100 1014.3
20260507220057 45 0 0.0 0.0 0.00 0.00 0.00 100 1014.3
20260507214554 45 0 0.0 0.0 0.00 0.07 0.00 100 1014.2
20260507213101 45 0 0.0 0.0 0.00 0.07 0.00 100 1014.2
20260507211559 46 0 0.0 0.0 0.00 0.07 0.00 100 1014.2
20260507210059 46 0 0.0 0.0 0.00 0.07 0.00 100 1014.3
20260507204600 47 0 0.0 0.0 0.00 0.14 0.00 100 1014.2